Total_Precipitation_Accumulation
0.04 0.05 0.04 0.01 0.00 0.00 0.00 0.00 0.00 0.01 0.05 0.10 0.13 0.12 0.22 0.27 0.22 0.07 0.00 0.00 0.00 0.00 0.00 0.00 0.00 0.00 0.00 0.00 0.00 0.00 0.00 0.00 0.00 0.00 0.00 0.00 0.00 0.00 0.00 0.00 0.00 0.00 0.00 0.00 0.00
0.04 0.03 0.04 0.04 0.01 0.00 0.00 0.00 0.00 0.00 0.00 0.01 0.03 0.07 0.11 0.12 0.13 0.13 0.01 0.00 0.01 0.01 0.00 0.00 0.00 0.01 0.00 0.00 0.00 0.00 0.00 0.00 0.00 0.00 0.00 0.00 0.00 0.00 0.00 0.00 0.00 0.00 0.00 0.00 0.00
0.05 0.05 0.05 0.06 0.05 0.01 0.00 0.01 0.01 0.00 0.00 0.01 0.03 0.04 0.10 0.05 0.06 0.02 0.00 0.02 0.12 0.15 0.01 0.00 0.01 0.05 0.04 0.00 0.00 0.00 0.00 0.00 0.00 0.00 0.00 0.00 0.00 0.00 0.00 0.00 0.00 0.00 0.00 0.00 0.00
0.07 0.08 0.08 0.08 0.09 0.06 0.01 0.00 0.01 0.02 0.01 0.00 0.02 0.06 0.10 0.06 0.02 0.01 0.00 0.00 0.03 0.17 0.02 0.01 0.02 0.04 0.04 0.01 0.00 0.00 0.00 0.00 0.00 0.00 0.00 0.00 0.00 0.00 0.00 0.00 0.00 0.00 0.00 0.00 0.00
0.12 0.12 0.11 0.09 0.10 0.10 0.03 0.00 0.00 0.00 0.01 0.01 0.04 0.09 0.08 0.06 0.02 0.00 0.00 0.00 0.00 0.05 0.03 0.03 0.04 0.02 0.02 0.00 0.01 0.00 0.00 0.00 0.00 0.00 0.00 0.00 0.00 0.00 0.00 0.00 0.00 0.00 0.00 0.00 0.00
0.09 0.09 0.09 0.09 0.09 0.09 0.06 0.00 0.00 0.00 0.03 0.07 0.10 0.11 0.03 0.03 0.00 0.00 0.00 0.00 0.00 0.02 0.03 0.06 0.04 0.01 0.01 0.00 0.02 0.00 0.00 0.00 0.00 0.00 0.00 0.00 0.00 0.00 0.00 0.00 0.00 0.00 0.00 0.00 0.00
0.11 0.12 0.10 0.09 0.10 0.10 0.08 0.02 0.00 0.00 0.04 0.11 0.19 0.11 0.04 0.00 0.00 0.00 0.00 0.00 0.00 0.01 0.03 0.04 0.06 0.15 0.09 0.06 0.00 0.01 0.01 0.00 0.00 0.00 0.00 0.00 0.00 0.00 0.00 0.00 0.00 0.00 0.00 0.00 0.00
0.13 0.16 0.16 0.15 0.16 0.13 0.11 0.09 0.05 0.04 0.06 0.12 0.14 0.13 0.05 0.00 0.00 0.00 0.00 0.00 0.00 0.00 0.01 0.03 0.16 0.16 0.13 0.08 0.04 0.05 0.06 0.02 0.00 0.00 0.00 0.00 0.00 0.00 0.00 0.00 0.00 0.00 0.00 0.00 0.00
0.18 0.17 0.16 0.18 0.20 0.19 0.17 0.24 0.16 0.19 0.21 0.14 0.05 0.10 0.03 0.00 0.00 0.00 0.00 0.00 0.00 0.00 0.00 0.03 0.18 0.19 0.11 0.16 0.16 0.11 0.04 0.01 0.00 0.00 0.00 0.00 0.00 0.00 0.00 0.00 0.00 0.00 0.00 0.00 0.00
0.16 0.19 0.20 0.20 0.25 0.26 0.35 0.44 0.35 0.29 0.19 0.11 0.06 0.06 0.00 0.00 0.00 0.00 0.00 0.00 0.04 0.08 0.06 0.08 0.20 0.23 0.16 0.21 0.14 0.04 0.02 0.01 0.00 0.00 0.00 0.00 0.00 0.00 0.00 0.00 0.00 0.00 0.00 0.00 0.00
0.20 0.25 0.28 0.29 0.36 0.39 0.67 1.20 0.44 0.19 0.12 0.01 0.02 0.00 0.00 0.00 0.00 0.00 0.00 0.00 0.03 0.14 0.09 0.10 0.21 0.19 0.10 0.04 0.03 0.02 0.05 0.02 0.00 0.00 0.01 0.00 0.00 0.00 0.00 0.00 0.00 0.00 0.00 0.00 0.00
0.20 0.23 0.29 0.38 0.43 0.73 1.15 0.76 0.12 0.05 0.13 0.04 0.01 0.00 0.00 0.02 0.03 0.01 0.00 0.01 0.05 0.13 0.10 0.23 0.19 0.04 0.09 0.06 0.05 0.06 0.06 0.04 0.01 0.02 0.04 0.00 0.00 0.00 0.00 0.00 0.00 0.00 0.00 0.00 0.00
0.27 0.28 0.33 0.41 0.66 0.97 1.00 0.48 0.14 0.15 0.49 0.24 0.04 0.03 0.01 0.02 0.03 0.07 0.00 0.03 0.05 0.12 0.18 0.22 0.18 0.05 0.14 0.13 0.09 0.07 0.07 0.04 0.03 0.05 0.04 0.02 0.00 0.00 0.00 0.00 0.00 0.00 0.00 0.00 0.00
0.33 0.35 0.41 0.60 0.95 1.02 1.01 0.65 0.43 0.49 1.16 0.24 0.04 0.08 0.09 0.18 0.12 0.02 0.00 0.05 0.09 0.12 0.16 0.22 0.19 0.18 0.17 0.25 0.09 0.06 0.03 0.04 0.07 0.16 0.05 0.07 0.03 0.00 0.00 0.00 0.00 0.00 0.00 0.00 0.00
0.40 0.42 0.47 0.90 1.01 0.93 1.04 0.81 0.72 0.90 0.89 0.04 0.03 0.02 0.05 0.15 0.12 0.03 0.01 0.15 0.17 0.14 0.38 0.45 0.24 0.31 0.19 0.28 0.09 0.09 0.02 0.04 0.08 0.22 0.34 0.07 0.08 0.01 0.00 0.00 0.00 0.00 0.00 0.00 0.00
0.58 0.56 0.65 0.83 0.83 0.65 0.96 1.18 1.03 0.93 0.37 0.07 0.08 0.09 0.12 0.10 0.16 0.17 0.06 0.16 0.34 0.50 0.47 0.28 0.18 0.30 0.19 0.17 0.16 0.10 0.14 0.14 0.22 0.33 0.52 0.34 0.10 0.02 0.00 0.00 0.00 0.00 0.00 0.00 0.00
0.77 0.76 0.98 0.78 0.85 0.80 1.06 1.37 1.17 0.44 0.16 0.27 0.18 0.21 0.12 0.06 0.14 0.19 0.17 0.24 0.89 0.80 0.79 0.88 0.59 0.48 0.23 0.35 0.50 0.40 0.58 0.80 0.72 0.75 0.36 0.07 0.24 0.11 0.00 0.00 0.00 0.00 0.00 0.00 0.00
0.71 0.99 1.03 0.74 0.80 1.45 1.30 1.06 0.66 0.14 0.21 0.24 0.16 0.23 0.30 0.11 0.17 0.15 0.32 0.17 0.49 0.42 0.61 0.78 0.66 0.52 0.30 0.46 0.78 0.60 0.53 0.77 0.39 0.30 0.13 0.05 0.07 0.03 0.00 0.00 0.00 0.00 0.00 0.00 0.00
0.99 1.23 1.37 0.86 0.97 1.55 1.63 1.00 0.29 0.17 0.23 0.21 0.23 0.24 0.27 0.13 0.18 0.16 0.19 0.13 0.17 0.17 0.44 0.47 0.52 0.31 0.19 0.22 0.52 0.68 0.73 0.48 0.50 0.21 0.31 0.10 0.02 0.00 0.00 0.00 0.00 0.00 0.00 0.00 0.00
1.54 1.62 1.53 0.78 1.05 1.65 1.70 0.79 0.32 0.39 0.32 0.17 0.12 0.05 0.04 0.08 0.19 0.11 0.08 0.05 0.09 0.03 0.19 0.33 0.57 0.53 0.49 0.41 0.58 0.55 0.35 0.53 1.07 0.48 0.20 0.11 0.06 0.00 0.00 0.00 0.00 0.00 0.00 0.00 0.00
1.61 1.86 1.39 1.14 1.58 1.96 1.34 0.58 0.30 0.26 0.22 0.18 0.06 0.05 0.02 0.02 0.19 0.05 0.04 0.03 0.05 0.02 0.13 0.44 0.62 0.63 0.88 0.76 0.54 0.56 0.61 0.50 0.55 0.27 0.13 0.06 0.08 0.01 0.00 0.00 0.02 0.01 0.01 0.00 0.00
1.50 1.61 1.18 1.91 2.22 1.40 0.63 0.62 0.37 0.18 0.17 0.17 0.07 0.02 0.01 0.01 0.12 0.05 0.03 0.02 0.01 0.03 0.16 0.38 0.55 0.70 0.54 0.20 0.16 0.24 0.26 0.19 0.70 0.38 0.21 0.11 0.03 0.01 0.01 0.00 0.02 0.03 0.03 0.02 0.01
1.52 1.41 2.09 1.22 1.12 0.68 0.48 0.62 0.39 0.15 0.17 0.20 0.05 0.01 0.00 0.01 0.02 0.01 0.02 0.00 0.00 0.01 0.15 0.29 0.73 0.75 0.69 0.48 0.47 0.60 0.33 0.28 0.56 0.93 0.48 0.23 0.03 0.00 0.01 0.01 0.01 0.01 0.02 0.01 0.00
1.21 1.53 2.99 1.98 0.47 0.33 0.57 0.67 0.53 0.20 0.17 0.22 0.08 0.04 0.04 0.02 0.00 0.00 0.04 0.00 0.00 0.01 0.18 0.66 0.60 0.74 0.73 0.73 0.78 0.55 0.30 0.46 0.77 1.02 0.32 0.15 0.03 0.01 0.01 0.03 0.02 0.02 0.03 0.06 0.02
0.72 0.60 0.80 0.83 0.34 0.08 0.53 0.74 0.78 0.64 0.43 0.27 0.12 0.04 0.05 0.02 0.02 0.00 0.01 0.00 0.00 0.01 0.21 0.73 0.94 1.21 0.74 0.38 0.93 0.53 0.29 0.37 0.71 0.47 0.32 0.11 0.07 0.02 0.01 0.03 0.06 0.05 0.10 0.04 0.02
0.49 0.27 0.13 0.06 0.03 0.02 0.32 0.76 0.86 0.76 0.60 0.31 0.14 0.05 0.05 0.03 0.01 0.00 0.00 0.00 0.00 0.01 0.11 0.47 0.78 0.95 0.56 0.17 0.33 0.34 0.15 0.18 0.17 0.29 0.36 0.16 0.21 0.05 0.02 0.08 0.20 0.12 0.17 0.05 0.02
0.53 0.26 0.08 0.11 0.05 0.03 0.08 0.39 0.62 0.63 0.49 0.27 0.18 0.16 0.04 0.02 0.01 0.01 0.00 0.00 0.00 0.01 0.09 0.27 0.44 0.77 0.63 0.37 0.24 0.39 0.20 0.12 0.13 0.16 0.27 0.25 0.18 0.07 0.06 0.25 0.24 0.23 0.21 0.02 0.01